Location: Lecco
(45.8566°N, 9.3977°E)
Time: 17:22:41
(UTC+02:00)

Transit 4A - Visible Passes

Search period start: 20 August 2019 00:00
Search period end: 30 August 2019 00:00
Orbit: 863 x 981 km, 66.8° (Epoch: 20 August)

Date Brightness Start Highest point End Pass type
(mag) Time Alt. Az. Time Alt. Az. Time Alt. Az.
20 Aug 11.1 00:54:48 10° N 00:55:56 10° N 00:57:03 10° NNE visible
20 Aug 10.4 02:40:41 10° NNW 02:45:07 19° NNE 02:49:27 10° ENE visible
20 Aug 8.3 04:26:30 10° NNW 04:32:45 67° NE 04:38:44 10° SE visible
20 Aug 9.8 21:22:13 10° WSW 21:28:02 35° NW 21:33:51 10° NNE visible
20 Aug 10.9 23:13:28 10° NW 23:16:27 13° NNW 23:19:27 10° N visible
21 Aug 11.0 01:04:15 10° N 01:05:58 11° N 01:07:41 10° NNE visible
21 Aug 10.1 02:49:53 10° NNW 02:54:54 24° NE 02:59:47 10° E visible
21 Aug 7.8 04:35:52 10° NNW 04:42:08 89° WSW 04:48:09 10° SSE visible
21 Aug 10.2 21:32:18 10° W 21:37:42 27° NW 21:43:04 10° NNE visible
21 Aug 10.9 23:24:15 10° NNW 23:26:27 12° NNW 23:28:38 10° N visible
22 Aug 10.8 01:13:30 10° N 01:15:59 12° NNE 01:18:27 10° NE visible
22 Aug 9.7 02:59:05 10° NNW 03:04:35 31° NE 03:09:55 10° ESE visible
22 Aug 7.8 04:45:17 10° NW 04:51:25 64° WSW 04:57:20 10° SSE visible
22 Aug 10.5 21:42:35 10° W 21:47:26 22° NNW 21:52:15 10° NNE visible
22 Aug 11.0 23:35:04 10° NNW 23:36:29 11° N 23:37:55 10° N visible
23 Aug 10.7 01:22:41 10° N 01:25:57 14° NNE 01:29:11 10° NE visible
23 Aug 9.1 03:08:20 10° NNW 03:14:12 40° NE 03:19:53 10° ESE visible
23 Aug 8.1 04:54:49 10° NW 05:00:38 44° WSW 05:06:16 10° S visible
23 Aug 10.6 21:53:03 10° WNW 21:57:15 18° NNW 22:01:26 10° NNE visible
23 Aug 11.0 23:45:34 10° N 23:46:33 10° N 23:47:30 10° N visible
24 Aug 10.5 01:31:52 10° NNW 01:35:51 17° NNE 01:39:46 10° ENE visible
24 Aug 8.5 03:17:36 10° NNW 03:23:44 54° NE 03:29:38 10° SE visible
24 Aug 8.6 05:04:30 10° NW 05:09:47 30° WSW 05:14:54 10° SSW visible
24 Aug 10.7 22:03:40 10° NW 22:07:09 15° NNW 22:10:36 10° N visible
24 Aug 10.9 23:55:21 10° N 23:56:36 11° N 23:57:50 10° NNE visible
25 Aug 10.1 01:41:03 10° NNW 01:45:41 21° NNE 01:50:13 10° E visible
25 Aug 8.0 03:26:55 10° NNW 03:33:10 75° NE 03:38:43 12° SE visible
25 Aug 9.0 05:14:28 10° WNW 05:18:50 21° WSW 05:21:51 14° SW visible
25 Aug 10.7 22:14:25 10° NW 22:17:06 13° NNW 22:19:46 10° N visible
26 Aug 10.7 00:04:40 10° N 00:06:38 11° NNE 00:08:34 10° NNE visible
26 Aug 9.8 01:50:16 10° NNW 01:55:26 26° NE 02:00:28 10° E visible
26 Aug 7.7 03:36:18 10° NW 03:42:31 79° WSW 03:44:20 48° SSE visible
26 Aug 9.4 05:25:01 10° WNW 05:27:40 13° W 05:27:40 13° W visible
26 Aug 10.3 20:33:03 10° W 20:38:15 25° NW 20:43:25 10° NNE visible
26 Aug 10.8 22:25:14 10° NNW 22:27:07 11° N 22:28:58 10° N visible
27 Aug 10.6 00:13:53 10° N 00:16:38 13° NNE 00:19:21 10° NE visible
27 Aug 9.3 01:59:28 10° NNW 02:05:06 34° NE 02:08:05 22° E visible
27 Aug 7.9 03:45:46 10° NW 03:51:29 55° WSW 03:51:29 55° WSW visible
27 Aug 10.5 20:43:24 10° WNW 20:48:00 20° NNW 20:52:36 10° NNE visible
27 Aug 10.8 22:36:00 10° NNW 22:37:09 10° N 22:38:17 10° N visible
28 Aug 10.4 00:23:04 10° N 00:26:34 15° NNE 00:30:02 10° ENE visible
28 Aug 8.8 02:08:43 10° NNW 02:14:41 45° NE 02:15:46 41° ENE visible
28 Aug 8.8 03:55:20 10° NW 03:59:11 31° WNW 03:59:11 31° WNW visible
28 Aug 10.5 20:53:55 10° WNW 20:57:51 17° NNW 21:01:46 10° NNE visible
28 Aug 10.8 22:46:18 10° N 22:47:12 10° N 22:48:07 10° N visible
29 Aug 10.2 00:32:14 10° NNW 00:36:27 18° NNE 00:40:20 11° ENE visible
29 Aug 8.3 02:18:01 10° NNW 02:23:46 60° NNE 02:23:46 60° NNE visible
29 Aug 9.5 04:05:06 10° NW 04:07:12 19° WNW 04:07:12 19° WNW visible
29 Aug 10.5 21:04:36 10° NW 21:07:46 14° NNW 21:10:56 10° N visible
29 Aug 10.6 22:55:50 10° N 22:57:15 11° N 22:58:41 10° NNE visible
